[[{"header":{"parameterUnit":"m.s-1","parameterCategory":1,"la1":30.2991,"la2":30.254,"lo1":-89.0895,"lo2":-89.0444,"dy":0.0017,"dx":0.0017,"nx":28,"ny":28,"refTime":"2024-10-10T21:00:00:Z","depth":0,"parameterNumber":2,"parameterNumberName":"U-component_of_WINDS"},"data":[0,0,0,0,0,0,0,0,0,0,0,0,0,0,0,0,0,0,0,0,0,0,0,0,0,0,0,0,0,0,0,0,0,0,0,0,0,0,0,0,0,0,0,0,0,0,0,0,0,0,0,0,0,0,0,0,0,0,-3.0602,-3.0603,0,-3.065,-3.065,-3.0651,-3.0593,-3.0591,-3.0589,-3.0587,-3.0637,-3.064,-3.0644,0,0,0,0,0,0,0,0,0,0,0,0,0,-3.0463,-3.0466,-3.0602,-3.0603,-3.0603,-3.065,-3.065,-3.0651,-3.0594,-3.0591,-3.0588,-3.0586,-3.0636,-3.064,-3.0644,0,0,0,0,0,0,0,0,0,0,0,0,0,-3.0518,-3.0467,-3.0602,-3.058,-3.0579,-3.0649,-3.065,-3.0651,-3.0594,-3.0591,-3.0588,-3.0585,-3.0635,-3.0639,-3.0644,-3.0739,0,0,-3.066,-3.0662,0,0,0,0,0,0,0,0,-3.0515,-3.0524,-3.0583,-3.0582,-3.058,-3.0612,-3.0619,-3.0681,-3.0595,-3.0588,-3.0587,-3.0583,-3.0631,-3.0636,-3.0652,-3.0741,-3.0744,-3.066,-3.0663,-3.0665,-3.0667,0,0,0,0,0,0,0,-3.0512,-3.0521,-3.0621,-3.0584,-3.0582,-3.0569,-3.0573,-3.0631,-3.0627,-3.0589,-3.0585,-3.0591,-3.063,-3.0648,-3.0653,-3.0744,-3.066,-3.0664,-3.0667,-3.0669,-3.0915,-3.0919,0,0,0,0,0,0,-3.051,-3.0518,-3.0619,-3.0622,-3.0539,-3.0574,-3.0579,-3.0605,-3.0626,-3.0627,-3.0594,-3.0588,-3.0641,-3.0647,-3.0655,-3.0769,-3.0665,-3.067,-3.0673,-3.0912,-3.0916,-3.092,0,0,0,0,0,0,-3.0507,-3.052,-3.0617,-3.0569,-3.0581,-3.058,-3.061,-3.0608,-3.0625,-3.063,-3.0629,-3.0612,-3.0639,-3.0648,-3.0719,-3.0769,-3.0672,-3.0677,-3.0908,-3.0913,-3.0918,-3.0996,0,0,0,0,0,0,-3.0504,-3.0519,-3.0555,-3.0571,-3.0583,-3.068,-3.0613,-3.0611,-3.0634,-3.0627,-3.0648,-3.0648,-3.0637,-3.0712,-3.0724,-3.0775,-3.068,-3.0903,-3.091,-3.0916,-3.0989,-3.1003,-3.1016,0,0,0,0,0,-3.0499,-3.0574,-3.0557,-3.0569,-3.0628,-3.0683,-3.0691,-3.0676,-3.0638,-3.0674,-3.0678,-3.0647,-3.0762,-3.072,-3.0733,-3.0786,-3.09,-3.0908,-3.0916,-3.0983,-3.1001,-3.1015,0,0,0,0,0,0,-3.0564,-3.0576,-3.0556,-3.0639,-3.0661,-3.0674,-3.0719,-3.0695,-3.0728,-3.072,-3.0701,-3.0706,-3.0783,-3.0791,-3.0744,-3.0879,-3.0825,-3.0836,-3.0871,-3.0888,-3.0901,-3.0898,-3.0685,0,0,0,0,0,-3.0589,-3.0632,-3.064,-3.0713,-3.0724,-3.072,-3.0744,-3.0731,-3.0752,-3.0761,-3.0769,-3.0792,-3.0833,-3.0861,-3.0899,-3.0989,-3.0994,-3.1032,-3.1046,-3.1057,-3.1067,-3.1118,-3.1135,-3.0946,-3.0946,-3.0946,0,0,-3.0639,-3.0651,-3.0679,-3.0726,-3.0741,-3.0788,-3.0728,-3.0779,-3.0814,-3.0769,-3.0837,-3.0844,-3.0868,-3.095,-3.0986,-3.0959,-3.112,-3.1067,-3.1076,-3.108,-3.1128,-3.1146,-3.1162,-3.0951,-3.095,-3.095,0,0,-3.0755,-3.0767,-3.083,-3.0846,-3.087,-3.0867,-3.0882,-3.0899,-3.0902,-3.0969,-3.0937,-3.0978,-3.1049,-3.1068,-3.1087,-3.1211,-3.1185,-3.1224,-3.1295,-3.1344,-3.1359,-3.1372,-3.1419,-3.1435,-3.1234,-3.1234,-3.1234,0,-3.0814,-3.0883,-3.0865,-3.092,-3.0942,-3.0903,-3.0967,-3.0984,-3.1019,-3.1036,-3.1004,-3.1093,-3.1107,-3.1194,-3.1224,-3.124,-3.1258,-3.1222,-3.1358,-3.1371,-3.1383,-3.1427,-3.1445,-3.1239,-3.1238,-3.1238,-3.1238,0,-3.0956,-3.1004,-3.1052,-3.1087,-3.1115,-3.1174,-3.1166,-3.1195,-3.118,-3.1181,-3.1251,-3.1266,-3.1307,-3.1326,-3.1312,-3.1412,-3.1394,-3.1361,-3.1306,-3.1407,-3.1448,-3.1464,-3.1246,-3.1244,-3.1243,-3.1242,0,0,-3.1115,-3.114,-3.1158,-3.1174,-3.1198,-3.1235,-3.1293,-3.1333,-3.136,-3.1386,-3.1435,-3.1496,-3.1466,-3.1487,-3.1475,-3.1518,-3.1618,-3.148,-3.148,-3.1507,-3.1731,-3.1758,-3.1777,-3.16,-3.1603,-3.1606,-3.173,0,-3.1232,-3.1332,-3.1318,-3.1415,-3.146,-3.1424,-3.1474,-3.1495,-3.1497,-3.1536,-3.1538,-3.1583,-3.1538,-3.1552,-3.1593,-3.1597,-3.1663,-3.1588,-3.1647,-3.165,-3.1644,-3.1798,-3.1826,-3.1943,-3.1746,-3.1748,-3.175,0,-3.1383,-3.1415,-3.1516,-3.1534,-3.1552,-3.1598,-3.1634,-3.1672,-3.1695,-3.1693,-3.1718,-3.1698,-3.1757,-3.17,-3.1782,-3.1731,-3.1754,-3.176,-3.1764,-3.1771,-3.1707,-3.1811,-3.1979,-3.1998,-3.1775,-3.1773,-3.1771,0,-3.1491,-3.1559,-3.1628,-3.1643,-3.1666,-3.1699,-3.171,-3.1729,-3.1755,-3.1787,-3.1804,-3.1842,-3.1864,-3.1894,-3.1886,-3.1845,-3.197,-3.1912,-3.1972,-3.1973,-3.2002,-3.2,-3.2178,-3.2014,-3.2014,-3.2013,-3.2013,0,-3.1625,-3.1689,-3.1678,-3.1721,-3.1791,-3.1775,-3.1846,-3.1852,-3.187,-3.1915,-3.1885,-3.1928,-3.1913,-3.1955,-3.1949,-3.2019,-3.2028,-3.203,-3.2028,-3.2033,-3.2034,-3.205,-3.2042,-3.2018,-3.2017,-3.2016,-3.2015,0,-3.1758,-3.1753,-3.1827,-3.1842,-3.1848,-3.19,-3.1913,-3.1954,-3.1954,-3.201,-3.2023,-3.2023,-3.2071,-3.2065,-3.2118,-3.2114,-3.2202,-3.2189,-3.2194,-3.2192,-3.2253,-3.2248,-3.2449,-3.2476,-3.2293,-3.2294,-3.2296,0,-3.1845,-3.1893,-3.1914,-3.1941,-3.1955,-3.2,-3.2026,-3.2012,-3.204,-3.2071,-3.2109,-3.2154,-3.219,-3.2268,-3.2274,-3.2315,-3.2304,-3.2372,-3.231,-3.2315,-3.2308,-3.2306,-3.2311,-3.2384,-3.2386,-3.2388,-3.2389,0,-3.1999,-3.1995,-3.2033,-3.2072,-3.2104,-3.2134,-3.216,-3.2185,-3.2173,-3.2207,-3.2256,-3.2284,-3.2339,-3.2385,-3.2424,-3.2436,-3.2412,-3.2409,-3.2425,-3.2433,-3.2435,-3.2436,-3.2229,-3.2404,-3.2403,-3.2402,-3.2401,-3.24,-3.2113,-3.2155,-3.2177,-3.2222,-3.224,-3.2266,-3.2306,-3.2311,-3.2351,-3.2395,-3.2384,-3.244,-3.2463,-3.2513,-3.2529,-3.2573,-3.2549,-3.2572,-3.2578,-3.2585,-3.2593,-3.2426,-3.258,-3.258,-3.2579,-3.2579,-3.2579,0,-3.2268,-3.2281,-3.2322,-3.236,-3.2396,-3.2369,-3.2397,-3.2429,-3.2479,-3.2502,-3.2538,-3.2595,-3.264,-3.2649,-3.2692,-3.2726,-3.2716,-3.2738,-3.2736,-3.274,-3.2612,-3.2594,-3.2745,-3.2745,-3.2745,-3.2745,-3.2745,-3.2745,-3.2353,-3.2424,-3.2422,-3.2502,-3.2513,-3.2568,-3.2587,-3.2611,-3.263,-3.2695,-3.2732,-3.2737,-3.2755,-3.28,-3.284,-3.2842,-3.286,-3.2887,-3.2884,-3.2765,-3.2748,-3.2733,-3.2716,-3.289,-3.2891,-3.3009,-3.301,-3.3011]},{"header":{"parameterUnit":"m.s-1","parameterCategory":1,"la1":30.2991,"la2":30.254,"lo1":-89.0895,"lo2":-89.0444,"dy":0.0017,"dx":0.0017,"nx":28,"ny":28,"refTime":"2024-10-10T21:00:00:Z","depth":0,"parameterNumber":3,"parameterNumberName":"V-component_of_WINDS"},"data":[0,0,0,0,0,0,0,0,0,0,0,0,0,0,0,0,0,0,0,0,0,0,0,0,0,0,0,0,0,0,0,0,0,0,0,0,0,0,0,0,0,0,0,0,0,0,0,0,0,0,0,0,0,0,0,0,0,0,-1.7601,-1.7601,0,-1.7552,-1.7551,-1.7551,-1.7491,-1.7491,-1.749,-1.7489,-1.7438,-1.7437,-1.7437,0,0,0,0,0,0,0,0,0,0,0,0,0,-1.7644,-1.7644,-1.7601,-1.7601,-1.76,-1.7552,-1.7551,-1.755,-1.7492,-1.7491,-1.7489,-1.7488,-1.7438,-1.7438,-1.7437,0,0,0,0,0,0,0,0,0,0,0,0,0,-1.7613,-1.7644,-1.7601,-1.7565,-1.7561,-1.7552,-1.7551,-1.755,-1.7492,-1.749,-1.7489,-1.7488,-1.7438,-1.7438,-1.7437,-1.746,0,0,-1.7435,-1.7434,0,0,0,0,0,0,0,0,-1.7615,-1.7612,-1.7571,-1.7567,-1.7563,-1.7526,-1.7548,-1.752,-1.7492,-1.7518,-1.7489,-1.7487,-1.7468,-1.7465,-1.7459,-1.7457,-1.7455,-1.7434,-1.7434,-1.7434,-1.7433,0,0,0,0,0,0,0,-1.7617,-1.7614,-1.7582,-1.757,-1.7566,-1.7551,-1.7545,-1.7542,-1.7502,-1.7516,-1.7511,-1.7506,-1.7466,-1.746,-1.7457,-1.7454,-1.7434,-1.7434,-1.7433,-1.7433,-1.7467,-1.7469,0,0,0,0,0,0,-1.7625,-1.7616,-1.7583,-1.758,-1.7586,-1.7551,-1.7544,-1.754,-1.7501,-1.7494,-1.7508,-1.7504,-1.7462,-1.7458,-1.7455,-1.7479,-1.7434,-1.7433,-1.7433,-1.7466,-1.7468,-1.7469,0,0,0,0,0,0,-1.7626,-1.7623,-1.7585,-1.7597,-1.7591,-1.7552,-1.7547,-1.7539,-1.7533,-1.7495,-1.7488,-1.7509,-1.746,-1.7456,-1.7459,-1.7476,-1.7433,-1.7432,-1.7464,-1.7467,-1.7468,-1.7526,0,0,0,0,0,0,-1.7628,-1.7623,-1.7632,-1.7597,-1.759,-1.759,-1.7548,-1.7539,-1.7532,-1.7526,-1.7494,-1.7488,-1.7459,-1.746,-1.7458,-1.7474,-1.7431,-1.7463,-1.7465,-1.7468,-1.7523,-1.753,-1.7536,0,0,0,0,0,-1.7629,-1.765,-1.7633,-1.7629,-1.76,-1.7591,-1.7587,-1.7554,-1.7533,-1.7541,-1.7517,-1.7489,-1.7474,-1.7461,-1.7458,-1.7474,-1.7461,-1.7465,-1.7468,-1.7519,-1.7528,-1.7536,0,0,0,0,0,0,-1.7688,-1.7645,-1.7625,-1.7636,-1.7618,-1.7581,-1.759,-1.7565,-1.7552,-1.7548,-1.7507,-1.75,-1.7507,-1.7491,-1.7476,-1.7494,-1.7464,-1.7466,-1.7504,-1.7512,-1.7519,-1.7523,-1.7431,0,0,0,0,0,-1.7703,-1.7699,-1.7661,-1.7674,-1.7666,-1.763,-1.7625,-1.7601,-1.758,-1.7572,-1.7548,-1.7529,-1.752,-1.7515,-1.7505,-1.752,-1.7511,-1.7529,-1.7536,-1.7542,-1.7545,-1.755,-1.7558,-1.7479,-1.7479,-1.7479,0,0,-1.7732,-1.7708,-1.7708,-1.7685,-1.7668,-1.7665,-1.7624,-1.7622,-1.7619,-1.7572,-1.7573,-1.7554,-1.753,-1.7539,-1.7541,-1.7525,-1.7565,-1.7546,-1.7551,-1.755,-1.7554,-1.7562,-1.7568,-1.7481,-1.7481,-1.7481,0,0,-1.7784,-1.7765,-1.7774,-1.7757,-1.7732,-1.7708,-1.771,-1.7677,-1.7663,-1.7663,-1.7627,-1.7623,-1.7609,-1.7593,-1.7583,-1.7628,-1.7601,-1.7626,-1.7661,-1.7667,-1.7674,-1.7679,-1.7694,-1.77,-1.7628,-1.7629,-1.7629,0,-1.7823,-1.7817,-1.7781,-1.7782,-1.7772,-1.7729,-1.7737,-1.7723,-1.7696,-1.769,-1.7673,-1.7653,-1.7634,-1.7638,-1.7649,-1.7642,-1.7643,-1.7629,-1.7676,-1.768,-1.7685,-1.7699,-1.7705,-1.7632,-1.7631,-1.7631,-1.7631,0,-1.7867,-1.7863,-1.7873,-1.7848,-1.7839,-1.7844,-1.7808,-1.7804,-1.778,-1.7758,-1.7758,-1.7733,-1.7717,-1.7716,-1.7693,-1.7716,-1.7707,-1.7683,-1.7652,-1.7696,-1.7709,-1.7714,-1.7636,-1.7635,-1.7634,-1.7633,0,0,-1.7955,-1.7909,-1.7913,-1.7901,-1.7869,-1.7866,-1.7867,-1.7851,-1.7848,-1.7831,-1.7831,-1.782,-1.7797,-1.7786,-1.7761,-1.7766,-1.7802,-1.7741,-1.774,-1.7753,-1.7825,-1.7843,-1.785,-1.7784,-1.7785,-1.7786,-1.7827,0,-1.8001,-1.8002,-1.7969,-1.7979,-1.7974,-1.7933,-1.7934,-1.7915,-1.7894,-1.7886,-1.7863,-1.7855,-1.7826,-1.7819,-1.7822,-1.7797,-1.7816,-1.7794,-1.7784,-1.7784,-1.7791,-1.7857,-1.7876,-1.7917,-1.7832,-1.7833,-1.7833,0,-1.8055,-1.804,-1.805,-1.8017,-1.8014,-1.8016,-1.7998,-1.7992,-1.7969,-1.7953,-1.794,-1.7911,-1.791,-1.7881,-1.7878,-1.7864,-1.7857,-1.7845,-1.7845,-1.7843,-1.7811,-1.7856,-1.7929,-1.7935,-1.7841,-1.784,-1.784,0,-1.8118,-1.81,-1.8103,-1.8094,-1.8056,-1.8058,-1.8043,-1.8018,-1.801,-1.7994,-1.7989,-1.7973,-1.7965,-1.7953,-1.7921,-1.7902,-1.7922,-1.789,-1.7908,-1.7909,-1.7914,-1.7914,-1.7986,-1.7911,-1.7911,-1.791,-1.791,0,-1.8172,-1.818,-1.8131,-1.8133,-1.814,-1.8101,-1.8109,-1.8089,-1.8067,-1.8064,-1.8027,-1.8025,-1.7982,-1.7975,-1.7949,-1.7951,-1.7948,-1.7934,-1.7927,-1.7938,-1.7939,-1.7933,-1.7929,-1.7912,-1.7912,-1.7911,-1.7911,0,-1.8244,-1.8212,-1.8212,-1.8176,-1.8167,-1.8173,-1.8142,-1.8142,-1.8118,-1.8115,-1.8112,-1.8074,-1.8064,-1.803,-1.8011,-1.7994,-1.8003,-1.799,-1.8011,-1.8007,-1.8027,-1.8025,-1.8097,-1.8104,-1.8024,-1.8025,-1.8026,0,-1.8281,-1.8286,-1.825,-1.8245,-1.8231,-1.8224,-1.8215,-1.8178,-1.817,-1.8144,-1.8147,-1.8133,-1.8121,-1.8106,-1.8077,-1.8062,-1.8048,-1.8074,-1.8045,-1.8055,-1.8048,-1.8048,-1.8048,-1.808,-1.8081,-1.8082,-1.8083,0,-1.835,-1.8334,-1.8323,-1.8307,-1.8298,-1.8283,-1.8266,-1.8264,-1.8222,-1.8216,-1.8204,-1.8195,-1.8175,-1.8162,-1.8142,-1.8125,-1.8097,-1.8092,-1.8095,-1.8106,-1.8118,-1.8111,-1.8028,-1.8091,-1.809,-1.8089,-1.8089,-1.8089,-1.8405,-1.8407,-1.8382,-1.8371,-1.8354,-1.8339,-1.8337,-1.8313,-1.8303,-1.8284,-1.8262,-1.8253,-1.8229,-1.8199,-1.8185,-1.8177,-1.8161,-1.8167,-1.8168,-1.817,-1.8174,-1.8119,-1.8173,-1.8173,-1.8172,-1.8172,-1.8172,0,-1.8472,-1.8453,-1.8444,-1.8421,-1.8413,-1.8386,-1.8366,-1.8361,-1.8353,-1.8333,-1.8321,-1.8308,-1.8295,-1.8264,-1.8248,-1.8247,-1.8234,-1.8244,-1.8244,-1.824,-1.8189,-1.8187,-1.8255,-1.8255,-1.8255,-1.8255,-1.8255,-1.8255,-1.8506,-1.8507,-1.8488,-1.848,-1.8461,-1.8452,-1.8443,-1.8428,-1.8412,-1.8399,-1.8388,-1.8368,-1.8343,-1.8324,-1.8311,-1.8302,-1.8298,-1.8313,-1.83,-1.8252,-1.8244,-1.8237,-1.8235,-1.8312,-1.8312,-1.8352,-1.8352,-1.8352]}]]